AirNav   Pilot Hours Calculator
 
 375 users online  

3CK Lake in the Hills Airport
Chicago/Lake In The Hills, Illinois, USA

GOING TO CHICAGO/LAKE IN THE HILLS?


FAA INFORMATION EFFECTIVE 15 JULY 2021

Location

FAA Identifier: 3CK
Lat/Long: 42-12-24.5133N 088-19-22.7894W
42-12.408555N 088-19.379823W
42.2068092,-88.3229971
(estimated)
Elevation: 887.3 ft. / 270.4 m (surveyed)
Variation: 02W (2000)
From city: 38 miles NW of central business district of the associated city
Time zone: UTC -5 (UTC -6 during Standard Time)
Zip code: 60102

Airport Operations

Airport use: Open to the public
Activation date: 07/1958
Control tower: no
ARTCC: CHICAGO CENTER
FSS: KANKAKEE FLIGHT SERVICE STATION
NOTAMs facility: IKK (NOTAM-D service available)
Attendance: MAY-OCT MON-SUN 0800-1700, NOV-APR MON-SUN 0900-1600
Wind indicator: lighted
Segmented circle: no
Lights: ACTVT LIRL RWY 08/26 - CTAF.
Beacon: white-green (lighted land airport)
Operates sunset to sunrise.

Airport Communications

CTAF/UNICOM: 123.05
CHICAGO APPROACH: 120.55
CHICAGO DEPARTURE: 120.55
WX AWOS-3 at 06C (16 nm SE): 128.275 ((847) 895-2887)
WX ASOS at DPA (18 nm S): PHONE 630-587-3668
WX ASOS at PWK (20 nm E): PHONE 847-465-0291

Nearby radio navigation aids

VOR radial/distance  VOR name  Freq  Var
OBKr269/16.5NORTHBROOK VOR/DME113.0002W
DPAr002/19.0DUPAGE VOR/DME108.4002E
RFDr091/39.0ROCKFORD VOR/DME110.8001E
JOTr358/39.6JOLIET VOR/DME112.3002E

Airport Services

Fuel available: 100LL JET-A
Parking: hangars and tiedowns
Airframe service: MAJOR
Powerplant service: MAJOR
Bottled oxygen: HIGH/LOW
Bulk oxygen: HIGH/LOW

Runway Information

Runway 8/26

Dimensions: 3801 x 50 ft. / 1159 x 15 m
Surface: asphalt, in good condition
Weight bearing capacity: 
Single wheel: 12.5
Double wheel: 38.0
Runway edge lights: low intensity
RUNWAY 8  RUNWAY 26
Latitude: 42-12.352603N42-12.464505N
Longitude: 088-19.793958W088-18.965687W
Elevation: 884.7 ft.885.1 ft.
Traffic pattern: leftleft
Runway heading: 082 magnetic, 080 true262 magnetic, 260 true
Displaced threshold: 360 ft.382 ft.
Markings: nonprecision, in good conditionnonprecision, in good condition
Visual slope indicator: 2-light PAPI on left (3.00 degrees glide path)2-light PAPI on right (3.00 degrees glide path)
Runway end identifier lights: no
Touchdown point: yes, no lightsyes, no lights

Airport Ownership and Management from official FAA records

Ownership: Publicly-owned
Owner: VILLAGE OF LAKE IN THE HILLS
600 HARVEST GATE
LAKE IN THE HILLS, IL 60156
Phone 847-960-7400
Manager: MICHAEL PERANICH
9010 HALIGUS ROAD
LAKE IN THE HILLS, IL 60156
Phone 815-479-7960
EXT: 2

Airport Operational Statistics

Aircraft based on the field: 106
Single engine airplanes: 96
Multi engine airplanes: 7
Jet airplanes: 2
Helicopters: 1
    
Aircraft operations: avg 93/day *
56% transient general aviation
44% local general aviation
* for 12-month period ending 30 August 2019

Additional Remarks

A57-08 APCH RATIO 27:1 TO DSPLCD THR.
FOR VFR WX ADVISORY 5 CLICKS CTAF. PHONE 815-444-1729
FOR CD CTC CHICAGO APCH AT 847-289-0926.

Instrument Procedures

NOTE: All procedures below are presented as PDF files. If you need a reader for these files, you should download the free Adobe Reader.

NOT FOR NAVIGATION. Please procure official charts for flight.
FAA instrument procedures published for use from 15 July 2021 at 0901Z to 12 August 2021 at 0900z.

 
IAPs - Instrument Approach Procedures
RNAV (GPS) RWY 08   download (223KB)
RNAV (GPS) RWY 26   download (210KB)
VOR RWY 26   download (252KB)
NOTE: Special Take-Off Minimums/Departure Procedures apply   download (201KB)

Other nearby airports with instrument procedures:

10C - Galt Field Airport (12 nm N)
C81 - Campbell Airport (13 nm NE)
KDPA - DuPage Airport (18 nm S)
KPWK - Chicago Executive Airport (20 nm E)
KORD - Chicago O'Hare International Airport (23 nm SE)
 
Loc | Ops | Rwys | IFR | FBO | Links
Com | Nav | Svcs | Stats | Notes
Area around 3CK (Lake in the Hills Airport)
 
Road maps at: MapQuest Bing Google
 
Aerial photo
WARNING: Photo may not be current or correct
Aerial photo of 3CK (Lake in the Hills Airport)
Photo taken 17-May-2018
looking south from 2500 ft.

Do you have a better or more recent aerial photo of Lake in the Hills Airport that you would like to share? If so, please send us your photo.

 
Sectional chart

 
Airport diagram
CAUTION: Diagram may not be current
Diagram of 3CK (Lake in the Hills Airport)
 
Airport distance calculator
Flying to Lake in the Hills Airport? Find the distance to fly.

From to 3CK

Sunrise and sunset
Times for 01-Aug-2021
 Local
(UTC-5)
 Zulu
(UTC)
Morning civil twilight05:1510:15
Sunrise05:4710:47
Sunset20:1201:12
Evening civil twilight20:4401:44

Current date and time
Zulu (UTC)  01-Aug-2021 08:53:16
Local (UTC-5)  01-Aug-2021 03:53:16
 
METAR
K06C 
16nm SE 
311315Z AUTO 00000KT 10SM CLR 19/14 A3006 RMK AO2 T01930144
KDPA 
18nm S 
010752Z 31005KT 7SM CLR 19/17 A2994 RMK AO2 SLP135 T01940167
KPWK 
20nm E 
010752Z AUTO 33006KT 9SM CLR 20/18 A2994 RMK AO2 SLP135 T02000178 $
KORD 
22nm SE 
010751Z 30006KT 8SM FEW050 FEW150 21/17 A2993 RMK AO2 SLP130 T02060172
KDKB 
23nm SW 
010835Z AUTO 33007KT 7SM CLR 18/16 A2998 RMK AO2 T01760158
KUGN 
24nm NE 
010755Z AUTO 32004KT 6SM HZ CLR 19/17 A2993 RMK AO2 SLP125 T01940167
KARR 
27nm S 
010752Z AUTO 28006KT 6SM BR CLR 16/15 A2995 RMK AO2 SLP138 T01560150
KBUU 
29nm N 
010835Z AUTO 33003KT 10SM 17/16 A2997 RMK AO2 T01680156 PWINO
KENW 
29nm NE 
010753Z AUTO 35004KT 5SM HZ CLR 19/17 A2994 RMK AO2 SLP136 T01940167
TAF
KDPA 
18nm S 
010520Z 0106/0206 29007KT 6SM HZ SCT040 BKN100 FM011000 34008KT P6SM SCT040 SCT100 FM011300 02010G16KT P6SM FEW020 FM012000 04013KT P6SM SCT040 FM020200 02005KT P6SM SCT040 SCT250
KORD 
22nm SE 
010520Z 0106/0212 29007KT P6SM SCT040 BKN100 FM011000 35008KT P6SM SCT040 SCT100 FM011300 02011G16KT P6SM SCT025 FM012000 04013KT P6SM SCT040 FM020200 01006KT P6SM SCT040 SCT250
NOTAMs
Click for the latest NOTAMs
NOTAMs are issued by the DoD/FAA and will open in a separate window not controlled by AirNav.

 

 
 

FBO, Fuel Providers, and Aircraft Ground Support

  
 Business Name 
 
 Contact 
 
 Services / Description 
 
Fuel Prices
 
Comments
  
 Village of Lake in the Hills
815-479-7960
[web site]
[email]
Airport management, Aviation fuel, Aircraft parking (ramp or tiedown), Hangars, Hangar leasing / sales, Passenger terminal and lounge, ...

More info about Village of Lake in the Hills
Phillips 66
100LL Jet A
FS $5.40 $3.70 
SS $4.75 $2.95 
 Updated 22-Jul-2021
 
   2 read write
FS=Full service
SS=Self service
Update Fuel Prices
 

Aviation Businesses, Services, and Facilities

  
 Business Name 
 
 Contact 
 
 Services / Description 
 
Distance
 
Comments
  
Blue Skies Flying Services, Inc. 815-356-8121
[web site]
[email]
Hangars, Flight training, Aircraft rental, Aircraft maintenance, Aviation accessories, Pilot supplies, Rental cars delivered, Courtesy transportation, ...
 
PSI FAA Test Center   FAA Authorized Chart Agent  
 
More info about Blue Skies Flying Services, Inc.
on airport  
   write
 

Would you like to see your business listed on this page?

 If your business provides an interesting product or service to pilots, flight crews, aircraft, or users of the Lake in the Hills Airport, you should consider listing it here.  To start the listing process, click on the button below
 
Add a business
 

Other Pages about Lake in the Hills Airport

www.lith.org/airport.html
 
Update a link
 
Copyright © AirNav, LLC. All rights reserved. Privacy Policy  Contact